Other Public Products
Issued by NWS Grand Forks, ND

Home | Current Version | Previous Version | Graphics & Text | Print | Product List | Glossary On
Versions: 1 2 3 4 5 6 7 8 9 10 11 12 13 14 15 16 17 18 19 20 21 22 23 24 25 26 27 28 29 30 31 32 33 34 35 36 37 38 39 40 41 42 43 44 45 46 47 48 49 50
000
FPUS83 KFGF 192031
OPUFGF
PRAIRIE TO PINES WEATHER ROUNDUP
NATIONAL WEATHER SERVICE EASTERN NORTH DAKOTA/GRAND FORKS ND
300 PM CDT FRI SEP 19 2014

 **SATELLITE DATA USED TO AUGMENT SKY COVER AT AUTOMATED STATIONS**
 *****  WEATHER ACROSS EASTERN NORTH DAKOTA  *****

CITY           SKY/WX    TMP DP  RH WIND       PRES   REMARKS
GRAND FORKS    MOSUNNY   79  67  66 S13       29.51F
GRAND FORKS AF MOSUNNY   82  63  51 SW16      29.52S
GRAND CITY NWS   N/A     79 N/A N/A SW12        N/A
BUXTON           N/A     77  68  72 S14         N/A
DEVILS LAKE    SUNNY     81  57  44 W16       29.52S
FARGO          PTSUNNY   77  65  66 S15       29.57F
WAHPETON ARPT  MOCLDY    73  63  68 S9        29.60F
$$

 *****  WEATHER ACROSS CENTRAL AND WESTERN NORTH DAKOTA  *****

CITY           SKY/WX    TMP DP  RH WIND       PRES   REMARKS
JAMESTOWN      SUNNY     80  56  43 W20       29.58S
BISMARCK       SUNNY     85  47  26 W21G29    29.65S
MINOT          LGT RAIN  81  48  31 W25G36    29.57R
MINOT AFB      SUNNY     79  50  36 W18       29.54F
GARRISON         N/A     82  48  30 W22G33    29.60F
WILLISTON      MOSUNNY   79  49  34 NW18G33   29.68R
DICKINSON      MOSUNNY   77  48  35 W26G35    29.72S
HETTINGER      SUNNY     80  46  30 W25G33    29.77S
$$

 *****  OTHER OBSERVATIONS NORTHEAST NORTH DAKOTA  *****

CITY           SKY/WX    TMP DP  RH WIND       PRES   REMARKS
WALHALLA       FAIR      81  61  50 SW6       29.48F
LANGDON        FAIR      81  55  41 W17G23    29.51F
CAVALIER       FAIR      77  63  61 SE6       29.48F
GRAFTON        FAIR      77  63  61 SW9       29.50S
CANDO          FAIR      81  50  34 W17G29    29.53S
FORT TOTTEN    NOT AVBL
ROLLA            N/A     77  52  41 W17G26    29.54S
RUGBY          FAIR      81  50  34 NW18G26   29.53F
 ***** THE ABOVE OBSERVATIONS ARE NON NWS ARE NOT QUALITY
        CONTROLLED AND MAY MIS-REPORT RAIN FOR SNOW...
$$

 *****  OTHER OBSERVATIONS SOUTHEAST NORTH DAKOTA *****

CITY           SKY/WX    TMP DP  RH WIND       PRES   REMARKS
COOPERSTOWN    NOT AVBL
VALLEY CITY    FAIR      81  63  54 W15G22    29.57F
OAKES            N/A     79  68  69 SW10      29.61S
GWINNER        CLEAR     79  64  61 SW13      29.62S
SHEYENNE NWR     N/A     77  64  65 SW10      29.95S
BUFFALO          N/A     80  60  51 SW9         N/A
WYNDMERE         N/A     79  66  65 SW7         N/A
 ***** THE ABOVE OBSERVATIONS ARE NON NWS ARE NOT QUALITY
       CONTROLLED AND MAY MIS-REPORT RAIN FOR SNOW...
$$

  *****  WEATHER ACROSS NORTHERN MINNESOTA  *****

CITY           SKY/WX    TMP DP  RH WIND       PRES   REMARKS
FLAG ISLAND    CLOUDY    61  59  94 S7        29.47F FOG
WARROAD        CLOUDY    70  66  88 SW14      29.51S
ROSEAU         PTSUNNY   70  64  83 S16       29.51S
HALLOCK        LGT RAIN  72  64  78 SW7       29.49S
THF RVR FALLS  PTSUNNY   72  63  73 SW15      29.54F
HALSTAD          N/A     76  63  64 SW16        N/A
FOSSTON        PTSUNNY   70  63  78 S20       29.57S
BAUDETTE       CLOUDY    66  63  90 SW12      29.52F
WASKISH        CLOUDY    66  64  94 CALM      29.55R
CROOKSTON      MOSUNNY   73  64  73 SW20      29.54S
$$
  *****  WEATHER ACROSS CENTRAL AND WEST MINNESOTA  *****

CITY           SKY/WX    TMP DP  RH WIND       PRES   REMARKS
BEMIDJI        CLOUDY    65  62  87 S13G20    29.57F
PARK RAPIDS    CLOUDY    65  61  87 S13       29.63F
WADENA         CLOUDY    64  61  88 S8        29.65R
DETROIT LAKES  CLOUDY    66  63  88 S13       29.63S
MOORHEAD       PTSUNNY   75  68  78 S13       29.58F
FERGUS FALLS   CLOUDY    72  63  73 S14       29.62F
ELBOW LAKE     CLOUDY    66  64  93 S7        29.62F
MORRIS MN      LGT RAIN  70  66  88 S8        29.64R
STAPLES        CLOUDY    63  61  94 S9        29.64F FOG
WHEATON        CLOUDY    72  64  78 S9        29.63F
$$
  *****  WEATHER ELSEWHERE ACROSS MINNESOTA  *****

CITY           SKY/WX    TMP DP  RH WIND       PRES   REMARKS
DULUTH         LGT RAIN  62  57  83 S13       29.67F
INTRNTL FALLS  LGT RAIN  62  60  93 S8        29.56F
ELY            CLOUDY    57  55  94 SW12G18   29.66R FOG
CLOQUET        LGT RAIN  61  57  88 S7        29.68F
BRAINERD       LGT RAIN  60  59  96 S12       29.68F FOG
HIBBING        CLOUDY    62  57  83 VRB3      29.66F
ALEXANDRIA     CLOUDY    64  63  96 SW9       29.69S FOG
SAINT CLOUD    CLOUDY    67  62  84 S9        29.68F HAZE
MINNEAPOLIS    PTSUNNY   78  61  55 S14G22    29.69F
$$

  *****  WEATHER ACROSS SOUTH DAKOTA  *****

CITY           SKY/WX    TMP DP  RH WIND       PRES   REMARKS
SIOUX FALLS    MOSUNNY   86  64  47 SW13G23   29.69F
BROOKINGS      NOT AVBL
WATERTOWN      PTSUNNY   77  65  66 W16       29.67S
HURON          PTSUNNY   83  63  50 W9        29.66S
SISSETON         N/A     74  66  76 W9        29.60F
ABERDEEN       PTSUNNY   78  67  68 SW10      29.64F
MITCHELL       MOSUNNY   85  67  54 SW10      29.68F
PIERRE         PTSUNNY   84  57  39 W13       29.69F
MOBRIDGE       SUNNY     84  58  40 NW15      29.66S
RAPID CITY     PTSUNNY   83  50  31 N12       29.82F
$$

  *****  SOME WEATHER IN NEARBY STATES *****

CITY           SKY/WX    TMP DP  RH WIND       PRES   REMARKS
GLASGOW MT     MOSUNNY   76  50  40 W12       29.75F
GREAT FALLS MT MOSUNNY   74  42  31 SW28G35   29.91S
CHEYENNE WY    MOSUNNY   85  39  19 NW10G22   30.03F
SCOTTSBLUFF NE SUNNY     87  49  26 NW7       29.89F
OMAHA NE       MOSUNNY   82  67  60 S16       29.83F
DES MOINES IA  PTSUNNY   80  65  59 S17       29.89F
DAVENPORT IA   SUNNY     75  50  41 S17G24    30.00F
CHICAGO IL     MOSUNNY   75  45  34 S16       30.05F
EAU CLAIRE WI  SUNNY     73  56  54 S23G30    29.74F
LA CROSSE WI   SUNNY     76  56  49 S24G33    29.83F
$$

  *****  SOME NATIONAL WEATHER *****

CITY           SKY/WX    TMP DP  RH WIND       PRES   REMARKS
LA GUARDIA NY  MOSUNNY   64  44  48 NE12      30.35S
RALEIGH NC     PTSUNNY   79  58  48 E10       30.18S
ATLANTA GA     MOSUNNY   82  62  50 E12G18    30.06F
NEW ORLEANS LA MOSUNNY   87  66  49 E14G22    29.92F
OKLAHOMA CITY  MOSUNNY   86  64  47 SE13G18   29.96F
ALBUQUERQUE NM PTSUNNY   78  54  43 SW5       30.05F
SALT LAKE CITY MOSUNNY   79  51  37 NW9       30.04F
LOS ANGELES CA MOSUNNY   75  62  64 W14       29.89F
BOISE ID       SUNNY     75  47  36 W10G20    30.07F
SEATTLE WA     PTSUNNY   69  55  60 SW8       30.12S
$$

*** WEATHER ACROSS MANITOBA...SASKATCHEWAN AND ONTARIO ***
                ***ONTARIO***

CITY           SKY/WX    TMP DP  RH WIND       PRES   REMARKS
GERALDTON      RAIN      54  52  94 SW16      29.63F VSB 1
THUNDER BAY    LGT RAIN  57  55  94 W6        29.64F FOG
SIOUX LOOKOUT  LGT RAIN  59  57  94 SW9G18    29.51S
TORONTO        PTSUNNY   57  45  62 SE9       30.24
BIG TROUT LK   CLOUDY    54  52  94 NW8       29.41R
PICKLE LAKE    DRIZZLE   59  57  94 SW12G20   29.43F FOG
DRYDEN         LGT RAIN  59  57  94 SW8       29.52  FOG
KENORA         LGT RAIN  61  61 100 SW8       29.51
$$
                *** MANITOBA***

CITY           SKY/WX    TMP DP  RH WIND       PRES   REMARKS
BRANDON        CLOUDY    72  61  68 N8        29.55R
DAUPHIN        LGT RAIN  59  54  82 N8        29.60R
ISLAND LAKE    CLOUDY    54  52  94 N6        29.50R FOG
PILOT MOUND    NOT AVBL
THE PAS        NOT AVBL
THOMPSON       CLOUDY    48  41  76 NW10      29.57S
WINNIPEG       CLOUDY    64  61  88 W6        29.49
LYNN LAKE      PTSUNNY   50  37  62 N7        29.60F
CHURCHILL      CLOUDY    41  36  81 NW25G35   29.45
GILLAM         CLOUDY    46  41  81 NW15      29.51S
$$
                ***SASKATCHEWAN***

CITY           SKY/WX    TMP DP  RH WIND       PRES   REMARKS
ESTEVAN        LGT RAIN  72  55  56 NW16G25   29.66R
KINDERSLEY     MOSUNNY   70  48  46 NW14G21   29.74S
LLOYDMINSTER   MOSUNNY   70  43  37 NW12G18   29.68F
PRINCE ALBERT  MOSUNNY   64  54  68 VRB2      29.63F
REGINA         PTSUNNY   70  52  52 NW12      29.69



USA.gov is the U.S. government's official web portal to all federal, state and local government web resources and services.